EW9904 Milton DE US current weather conditions

sailwx.info

Wind from 073 at 2 knots gusting 5

Air temperature 23.3° C
Dewpoint 22.0° C

Last reported at 2020-Jul-04 11:06 UTC.
Time now 2020-Jul-04 11:40 UTC

Location: N 38°42' W 075°12'.
View on Google Maps.

See reports from other nearby stations

  
Tides and Currents Weather Stations Pressure Air Temp Water Temp Dewpoint Dewpoint Depression Visibility Wind Speed Wind Dir Waves Ship Positions
date/time (UTC)wind fromknots sea level pressurealtimeterstation pressurevisibilityair tempwater tempwave heightnotes
2020-Jul-04 11:06 073 2 gusting 5 23.3
2020-Jul-04 11:01 082 1 gusting 6 23.3
2020-Jul-04 10:55 128 1 gusting 3 23.3
2020-Jul-04 10:50 084 1 gusting 3 23.3
2020-Jul-04 10:45 026 1 gusting 3 22.8
2020-Jul-04 10:40 088 1 gusting 2 22.8
2020-Jul-04 10:35 080 1 gusting 2 23.3
2020-Jul-04 10:30 105 1 gusting 5 22.8
2020-Jul-04 10:25 094 1 gusting 5 22.8
2020-Jul-04 10:20 084 1 gusting 2 22.8
2020-Jul-04 10:15 076 1 gusting 2 22.8
2020-Jul-04 10:10 103 1 gusting 2 22.8
2020-Jul-04 10:05 063 1 gusting 2 22.8
2020-Jul-04 09:55 063 1 gusting 4 22.2
2020-Jul-04 09:50 061 1 gusting 4 22.2
2020-Jul-04 09:45 025 1 gusting 2 22.2
2020-Jul-04 09:40 020 0 gusting 2 22.2
2020-Jul-04 09:35 020 0 gusting 1 22.2
2020-Jul-04 09:30 020 0 gusting 1 22.2
2020-Jul-04 09:25 020 0 gusting 4 22.8
2020-Jul-04 09:20 020 1 gusting 4 22.2
2020-Jul-04 09:15 021 1 gusting 4 22.2
2020-Jul-04 09:10 360 0 gusting 3 22.2
2020-Jul-04 09:05 032 0 gusting 2 22.2
2020-Jul-04 09:00 044 0 gusting 2 22.2
2020-Jul-04 08:55 046 0 gusting 2 22.2
2020-Jul-04 08:50 049 22.2
2020-Jul-04 08:45 049 21.7
2020-Jul-04 08:40 049 21.7
2020-Jul-04 08:35 049 22.2
2020-Jul-04 08:30 049 22.2
2020-Jul-04 08:25 049 22.2
2020-Jul-04 08:20 049 0 gusting 2 22.2
2020-Jul-04 08:15 049 0 gusting 2 22.2
2020-Jul-04 08:10 049 0 gusting 2 22.2
2020-Jul-04 08:05 051 22.2
2020-Jul-04 08:00 055 22.2
2020-Jul-04 07:55 055 22.2
2020-Jul-04 07:50 055 22.2
2020-Jul-04 07:45 054 22.2
2020-Jul-04 07:40 063 22.2
2020-Jul-04 07:35 063 0 gusting 1 22.2
2020-Jul-04 07:30 063 0 gusting 1 22.2
2020-Jul-04 07:25 063 22.2
2020-Jul-04 07:20 063 22.2
2020-Jul-04 07:15 063 22.8
2020-Jul-04 07:10 063 22.8
2020-Jul-04 07:05 063 22.8
2020-Jul-04 07:00 063 22.8
2020-Jul-04 06:55 063 22.8
2020-Jul-04 06:45 062 0 gusting 1 23.3
2020-Jul-04 06:40 062 0 gusting 1 23.3
2020-Jul-04 06:35 062 23.3
2020-Jul-04 06:25 062 0 gusting 2 23.3
2020-Jul-04 06:21 151 0 gusting 2 23.3
2020-Jul-04 06:15 138 23.3
2020-Jul-04 06:10 115 0 gusting 2 23.3
2020-Jul-04 06:05 115 23.3
2020-Jul-04 06:00 077 23.9
2020-Jul-04 05:55 077 0 gusting 5 23.9
2020-Jul-04 05:50 076 1 gusting 5 23.9
2020-Jul-04 05:45 063 1 gusting 4 23.9
2020-Jul-04 05:40 086 2 gusting 4 23.9
2020-Jul-04 05:35 090 1 gusting 3 23.9
2020-Jul-04 05:25 063 1 gusting 4 23.9
2020-Jul-04 05:20 098 1 gusting 3 24.4
2020-Jul-04 05:15 066 1 gusting 3 24.4
2020-Jul-04 05:10 086 3 gusting 6 24.4
2020-Jul-04 05:05 067 4 gusting 8 24.4
2020-Jul-04 05:00 091 4 gusting 8 24.4
2020-Jul-04 04:55 088 3 gusting 11 25.0
2020-Jul-04 04:50 098 4 gusting 11 25.0
2020-Jul-04 04:40 065 3 gusting 7 26.1
2020-Jul-04 04:35 046 4 gusting 8 26.1
2020-Jul-04 04:30 043 4 gusting 12 26.1
2020-Jul-04 04:25 005 3 gusting 12 26.1
2020-Jul-04 04:20 325 2 gusting 7 25.6
2020-Jul-04 04:15 337 1 gusting 4 25.6
2020-Jul-04 04:10 311 1 gusting 3 25.6
2020-Jul-04 04:05 292 1 gusting 4 25.6
2020-Jul-04 03:55 347 0 gusting 9 25.0
2020-Jul-04 03:50 115 25.0
2020-Jul-04 03:45 115 25.0
2020-Jul-04 03:40 115 25.0
2020-Jul-04 03:35 115 25.0
2020-Jul-04 03:30 115 24.4
2020-Jul-04 03:20 126 24.4
2020-Jul-04 03:15 126 24.4
2020-Jul-04 03:05 126 24.4
2020-Jul-04 03:00 126 24.4
2020-Jul-04 02:55 126 24.4
2020-Jul-04 02:45 126 24.4
2020-Jul-04 02:40 126 24.4
2020-Jul-04 02:35 126 24.4
2020-Jul-04 02:30 126 24.4
2020-Jul-04 02:25 126 24.4
2020-Jul-04 02:15 126 24.4
2020-Jul-04 02:10 126 25.0
2020-Jul-04 02:05 126 25.0
2020-Jul-04 01:55 126 25.0
2020-Jul-04 01:50 126 25.6
2020-Jul-04 01:45 126 25.0
2020-Jul-04 01:40 126 25.6
2020-Jul-04 01:35 126 25.0
2020-Jul-04 01:25 126 25.6
2020-Jul-04 01:20 126 25.6
2020-Jul-04 01:15 126 25.6
2020-Jul-04 01:05 126 26.1
2020-Jul-04 00:55 126 26.1
2020-Jul-04 00:50 126 26.1
2020-Jul-04 00:45 126 26.7
2020-Jul-04 00:35 126 26.7
2020-Jul-04 00:30 126 26.7
2020-Jul-04 00:25 126 27.2
2020-Jul-04 00:20 325 27.2
2020-Jul-04 00:15 325 0 gusting 0 27.8
2020-Jul-04 00:10 326 0 gusting 0 27.8
2020-Jul-04 00:05 325 0 gusting 0 28.3
2020-Jul-03 23:55 325 28.9
2020-Jul-03 23:45 325 29.4
2020-Jul-03 23:40 325 0 gusting 1 30.0
2020-Jul-03 23:35 325 0 gusting 1 30.6
2020-Jul-03 23:30 325 0 gusting 2 30.6
2020-Jul-03 23:25 325 1 gusting 2 30.6
2020-Jul-03 23:15 309 2 gusting 4 31.1
2020-Jul-03 23:10 335 1 gusting 4 31.1
2020-Jul-03 23:05 324 1 gusting 3 31.1
2020-Jul-03 22:55 331 0 gusting 4 31.7
2020-Jul-03 22:50 331 2 gusting 4 32.2
2020-Jul-03 22:40 346 2 gusting 6 32.2
2020-Jul-03 22:35 319 1 gusting 3 32.2
2020-Jul-03 22:25 005 1 gusting 3 32.2
2020-Jul-03 22:20 324 1 gusting 4 32.2
2020-Jul-03 22:15 300 1 gusting 4 32.2
2020-Jul-03 22:10 017 1 gusting 3 32.8
2020-Jul-03 22:05 330 1 gusting 5 32.8
2020-Jul-03 21:55 092 1 gusting 4 32.8
2020-Jul-03 21:50 055 1 gusting 4 33.3
2020-Jul-03 21:45 060 1 gusting 4 32.8
2020-Jul-03 21:40 034 0 gusting 2 32.8
2020-Jul-03 21:35 040 1 gusting 3 32.8
2020-Jul-03 21:30 016 1 gusting 3 33.3
2020-Jul-03 21:25 040 1 gusting 4 33.3
2020-Jul-03 21:20 329 1 gusting 5 33.3
2020-Jul-03 21:15 037 1 gusting 5 33.3
2020-Jul-03 21:10 049 2 gusting 6 33.3
2020-Jul-03 21:05 073 2 gusting 6 33.3
2020-Jul-03 21:00 055 2 gusting 5 33.3
2020-Jul-03 20:55 319 2 gusting 5 32.8
2020-Jul-03 20:50 339 2 gusting 5 33.3
2020-Jul-03 20:45 005 1 gusting 4 33.3
2020-Jul-03 20:40 345 2 gusting 5 33.9
2020-Jul-03 20:35 319 3 gusting 5 33.9
2020-Jul-03 20:25 061 1 gusting 4 33.9
2020-Jul-03 20:20 083 1 gusting 3 33.3
2020-Jul-03 20:15 033 1 gusting 3 33.3
2020-Jul-03 20:05 065 1 gusting 5 33.3
2020-Jul-03 19:55 034 1 gusting 4 33.9
2020-Jul-03 19:50 052 1 gusting 5 33.9
2020-Jul-03 19:45 060 2 gusting 5 33.9
2020-Jul-03 19:40 044 2 gusting 5 34.4
2020-Jul-03 19:35 029 1 gusting 5 34.4
2020-Jul-03 19:25 005 2 gusting 5 35.0
2020-Jul-03 19:15 011 2 gusting 6 33.9
2020-Jul-03 19:10 092 1 gusting 3 33.9
2020-Jul-03 19:00 327 2 gusting 7 33.9
2020-Jul-03 18:55 302 2 gusting 6 33.9
2020-Jul-03 18:50 343 2 gusting 7 33.9
2020-Jul-03 18:45 324 2 gusting 7 33.9
2020-Jul-03 18:40 005 3 gusting 7 33.9
2020-Jul-03 18:35 305 3 gusting 7 33.9
2020-Jul-03 18:30 011 1 gusting 6 33.9
2020-Jul-03 18:25 315 2 gusting 7 33.9
2020-Jul-03 18:20 313 2 gusting 7 33.9
2020-Jul-03 18:15 005 3 gusting 9 33.9
2020-Jul-03 18:10 316 5 gusting 9 33.3
2020-Jul-03 18:05 338 3 gusting 9 33.3
2020-Jul-03 17:55 346 2 gusting 6 33.3
2020-Jul-03 17:50 349 1 gusting 6 33.9
2020-Jul-03 17:45 024 2 gusting 7 33.9
2020-Jul-03 17:40 023 3 gusting 7 33.3
2020-Jul-03 17:35 346 2 gusting 6 33.3
2020-Jul-03 17:30 349 2 gusting 6 33.3
2020-Jul-03 17:25 015 2 gusting 5 33.3
2020-Jul-03 17:20 325 2 gusting 4 33.3
2020-Jul-03 17:15 296 3 gusting 6 33.3
2020-Jul-03 17:10 017 2 gusting 6 32.8
2020-Jul-03 17:05 360 2 gusting 6 33.3
2020-Jul-03 17:00 022 2 gusting 6 32.8
2020-Jul-03 16:55 256 2 gusting 7 33.3
2020-Jul-03 16:50 055 1 gusting 4 33.3
2020-Jul-03 16:45 329 1 gusting 4 32.8
2020-Jul-03 16:40 073 1 gusting 5 32.8
2020-Jul-03 16:35 066 1 gusting 4 33.3
2020-Jul-03 16:30 030 1 gusting 6 32.8
2020-Jul-03 16:25 299 2 gusting 6 32.8
2020-Jul-03 16:20 074 1 gusting 5 32.8
2020-Jul-03 16:15 049 1 gusting 5 32.8
2020-Jul-03 16:10 026 2 gusting 5 32.2
2020-Jul-03 16:05 096 2 gusting 5 32.8
2020-Jul-03 16:00 306 2 gusting 5 32.2
2020-Jul-03 15:55 030 1 gusting 5 32.2
2020-Jul-03 15:50 043 2 gusting 6 32.2
2020-Jul-03 15:45 332 3 gusting 7 31.7
2020-Jul-03 15:40 341 3 gusting 9 31.7
2020-Jul-03 15:35 355 3 gusting 9 31.7
2020-Jul-03 15:25 015 2 gusting 6 32.2
2020-Jul-03 15:20 050 2 gusting 6 32.2
2020-Jul-03 15:15 296 2 gusting 6 32.2
2020-Jul-03 15:10 063 2 gusting 8 32.2
2020-Jul-03 15:05 068 3 gusting 8 32.2
2020-Jul-03 15:00 350 3 gusting 7 31.7
2020-Jul-03 14:55 348 4 gusting 10 31.7
2020-Jul-03 14:50 355 4 gusting 10 31.7
2020-Jul-03 14:45 355 3 gusting 9 31.7
2020-Jul-03 14:40 350 3 gusting 6 31.7
2020-Jul-03 14:35 355 2 gusting 6 31.7
2020-Jul-03 14:30 052 2 gusting 5 31.7
2020-Jul-03 14:25 058 3 gusting 9 31.7
2020-Jul-03 14:20 340 3 gusting 10 31.1
2020-Jul-03 14:15 331 3 gusting 10 31.1
2020-Jul-03 14:10 060 3 gusting 7 30.6
2020-Jul-03 14:05 338 3 gusting 6 30.6
2020-Jul-03 13:55 311 2 gusting 6 30.6
2020-Jul-03 13:50 342 2 gusting 6 30.0
2020-Jul-03 13:45 005 3 gusting 6 30.0
2020-Jul-03 13:40 334 3 gusting 6 29.4
2020-Jul-03 13:35 355 3 gusting 7 29.4
2020-Jul-03 13:25 036 3 gusting 8 28.9
2020-Jul-03 13:20 338 3 gusting 6 28.9
2020-Jul-03 13:15 336 3 gusting 6 28.9
2020-Jul-03 13:10 019 2 gusting 6 28.3
2020-Jul-03 13:05 322 2 gusting 6 28.3
2020-Jul-03 12:55 338 4 gusting 7 27.8
2020-Jul-03 12:50 013 3 gusting 7 27.8
2020-Jul-03 12:45 355 2 gusting 4 27.8
2020-Jul-03 12:40 034 3 gusting 11 27.2
2020-Jul-03 12:35 309 3 gusting 11 27.2
2020-Jul-03 12:30 333 2 gusting 7 27.2
2020-Jul-03 12:25 327 3 gusting 6 26.7
2020-Jul-03 12:20 338 2 gusting 6 26.7
2020-Jul-03 12:15 321 2 gusting 6 26.1
2020-Jul-03 12:10 360 2 gusting 6 26.1
2020-Jul-03 12:05 333 2 gusting 5 26.1
2020-Jul-03 12:00 317 3 gusting 5 25.6
2020-Jul-03 11:55 337 2 gusting 6 25.6
2020-Jul-03 11:50 330 2 gusting 4 25.0
2020-Jul-03 11:45 348 2 gusting 4 25.0
2020-Jul-03 11:40 350 2 gusting 5 24.4
2020-Jul-03 11:35 355 2 gusting 5 24.4
2020-Jul-03 11:30 330 2 gusting 5 24.4
2020-Jul-03 11:25 342 2 gusting 4 23.9
2020-Jul-03 11:20 350 2 gusting 4 23.9
2020-Jul-03 11:15 298 1 gusting 3 23.3
2020-Jul-03 11:10 290 1 gusting 2 22.8
2020-Jul-03 11:05 292 1 gusting 3 22.8
2020-Jul-03 11:00 320 1 gusting 4 22.8
2020-Jul-03 10:55 320 1 gusting 4 22.2
2020-Jul-03 10:50 319 0 gusting 2 22.2
2020-Jul-03 10:45 317 0 gusting 2 22.2
2020-Jul-03 10:40 314 0 gusting 2 22.2
2020-Jul-03 10:35 314 0 gusting 2 21.7
2020-Jul-03 10:30 313 0 gusting 2 21.7
2020-Jul-03 10:25 310 0 gusting 3 21.7
2020-Jul-03 10:20 318 0 gusting 3 21.7
2020-Jul-03 10:15 307 0 gusting 2 21.7
2020-Jul-03 10:10 303 21.7
2020-Jul-03 10:05 303 21.7
2020-Jul-03 10:00 303 21.7
2020-Jul-03 09:55 303 21.7
2020-Jul-03 09:50 303 0 gusting 2 21.7
2020-Jul-03 09:45 304 0 gusting 2 21.7
2020-Jul-03 09:40 295 0 gusting 2 21.7
2020-Jul-03 09:35 296 0 gusting 1 21.7
2020-Jul-03 09:30 304 0 gusting 0 21.7
2020-Jul-03 09:25 304 0 gusting 3 21.7
2020-Jul-03 09:20 304 0 gusting 3 21.7
2020-Jul-03 09:15 294 0 gusting 2 21.7
2020-Jul-03 09:10 292 0 gusting 3 21.7
2020-Jul-03 09:05 311 0 gusting 3 21.7
2020-Jul-03 09:00 305 0 gusting 4 21.7
2020-Jul-03 08:50 303 0 gusting 2 21.7
2020-Jul-03 08:45 302 0 gusting 1 21.7
2020-Jul-03 08:40 301 0 gusting 1 21.7
2020-Jul-03 08:35 299 0 gusting 2 22.2
2020-Jul-03 08:30 299 0 gusting 2 22.2
2020-Jul-03 08:25 297 0 gusting 2 22.2
2020-Jul-03 08:20 271 0 gusting 1 22.2
2020-Jul-03 08:10 257 0 gusting 1 22.2
2020-Jul-03 08:00 278 0 gusting 2 22.2
2020-Jul-03 07:55 310 0 gusting 1 22.2
2020-Jul-03 07:50 309 22.2
2020-Jul-03 07:40 309 0 gusting 2 22.2
2020-Jul-03 07:35 309 0 gusting 2 22.2
2020-Jul-03 07:30 309 0 gusting 2 22.2
2020-Jul-03 07:25 309 0 gusting 2 22.2
2020-Jul-03 07:20 246 0 gusting 1 22.2
2020-Jul-03 07:15 240 0 gusting 2 22.2
2020-Jul-03 07:10 224 0 gusting 1 22.2
2020-Jul-03 07:05 221 0 gusting 1 22.2
2020-Jul-03 07:00 221 22.2
2020-Jul-03 06:55 221 0 gusting 2 22.2
2020-Jul-03 06:50 277 0 gusting 2 22.2
2020-Jul-03 06:45 275 22.2
2020-Jul-03 06:40 275 22.2
2020-Jul-03 06:35 277 22.2
2020-Jul-03 06:30 276 22.2
2020-Jul-03 06:25 276 22.2
2020-Jul-03 06:20 276 0 gusting 1 22.2
2020-Jul-03 06:15 277 0 gusting 1 22.8
2020-Jul-03 06:10 227 22.8
2020-Jul-03 06:05 207 22.8
2020-Jul-03 06:00 207 22.8
2020-Jul-03 05:55 207 0 gusting 2 22.8
2020-Jul-03 05:50 207 0 gusting 2 22.8
2020-Jul-03 05:45 294 0 gusting 2 22.8
2020-Jul-03 05:40 267 0 gusting 3 22.8
2020-Jul-03 05:30 281 22.8
2020-Jul-03 05:25 288 0 gusting 3 22.8
2020-Jul-03 05:20 248 0 gusting 2 22.8
2020-Jul-03 05:15 288 22.8
2020-Jul-03 05:10 286 22.8
2020-Jul-03 05:05 286 22.8
2020-Jul-03 05:00 284 22.8
2020-Jul-03 04:55 285 22.8
2020-Jul-03 04:50 255 22.8
2020-Jul-03 04:45 254 22.8
2020-Jul-03 04:40 254 22.8
2020-Jul-03 04:35 254 23.3
2020-Jul-03 04:30 252 0 gusting 2 23.3
2020-Jul-03 04:20 260 23.3
2020-Jul-03 04:15 259 23.3
2020-Jul-03 04:10 278 23.3
2020-Jul-03 04:05 277 23.3
2020-Jul-03 04:00 276 0 gusting 2 23.3
2020-Jul-03 03:55 273 0 gusting 1 23.3
2020-Jul-03 03:50 275 23.3
2020-Jul-03 03:45 270 23.3
2020-Jul-03 03:40 270 23.3
2020-Jul-03 03:35 277 23.3
2020-Jul-03 03:30 277 23.3
2020-Jul-03 03:25 277 23.3
2020-Jul-03 03:20 277 23.3
2020-Jul-03 03:15 279 23.9
2020-Jul-03 03:05 279 23.9
2020-Jul-03 03:00 279 23.9
2020-Jul-03 02:55 279 23.9
2020-Jul-03 02:45 279 23.9
2020-Jul-03 02:40 279 23.9
2020-Jul-03 02:30 279 23.9
2020-Jul-03 02:25 279 24.4
2020-Jul-03 02:20 283 24.4
2020-Jul-03 02:10 283 24.4
2020-Jul-03 02:00 283 24.4
2020-Jul-03 01:55 283 24.4
2020-Jul-03 01:50 283 24.4
2020-Jul-03 01:40 283 25.0
2020-Jul-03 01:35 283 25.0
2020-Jul-03 01:30 283 25.0
2020-Jul-03 01:20 283 25.6
2020-Jul-03 01:15 283 25.6
2020-Jul-03 01:10 283 25.6
2020-Jul-03 01:05 283 25.6
2020-Jul-03 00:55 283 25.6
2020-Jul-03 00:45 283 26.1
2020-Jul-03 00:40 283 26.1
2020-Jul-03 00:30 283 26.1
2020-Jul-03 00:25 283 26.1
2020-Jul-03 00:15 285 26.7
2020-Jul-03 00:10 285 26.7
2020-Jul-03 00:05 285 26.7
2020-Jul-03 00:00 285 27.2
2020-Jul-02 23:55 285 27.2
2020-Jul-02 23:50 285 27.2
2020-Jul-02 23:40 285 27.8
2020-Jul-02 23:35 285 27.8
2020-Jul-02 23:30 285 28.3
2020-Jul-02 23:25 285 0 gusting 2 28.3
2020-Jul-02 23:20 296 0 gusting 4 28.3
2020-Jul-02 23:15 287 0 gusting 4 28.3
2020-Jul-02 23:10 275 0 gusting 3 28.9
2020-Jul-02 23:00 273 0 gusting 4 28.9
2020-Jul-02 22:55 278 1 gusting 4 28.9
2020-Jul-02 22:50 301 1 gusting 5 29.4
2020-Jul-02 22:45 264 1 gusting 3 29.4
2020-Jul-02 22:40 296 1 gusting 3 29.4
2020-Jul-02 22:30 335 1 gusting 6 29.4
2020-Jul-02 22:25 299 2 gusting 5 30.0
2020-Jul-02 22:20 326 2 gusting 5 30.0
2020-Jul-02 22:15 328 1 gusting 6 30.6
2020-Jul-02 22:10 346 1 gusting 6 30.0
2020-Jul-02 22:05 229 2 gusting 6 30.0
2020-Jul-02 22:00 341 2 gusting 6 30.6
2020-Jul-02 21:55 276 1 gusting 4 30.0
2020-Jul-02 21:50 348 2 gusting 5 30.6
2020-Jul-02 21:45 333 1 gusting 5 30.6
2020-Jul-02 21:40 349 1 gusting 5 31.1
2020-Jul-02 21:35 312 2 gusting 5 30.6
2020-Jul-02 21:30 355 1 gusting 5 30.6
2020-Jul-02 21:25 215 0 gusting 3 30.6
2020-Jul-02 21:15 331 1 gusting 6 31.1
2020-Jul-02 21:10 324 2 gusting 6 31.1
2020-Jul-02 21:05 342 3 gusting 6 31.1
2020-Jul-02 21:00 355 2 gusting 9 31.1
2020-Jul-02 20:55 347 1 gusting 4 31.1
2020-Jul-02 20:50 300 2 gusting 7 30.6
2020-Jul-02 20:45 355 3 gusting 7 31.1
2020-Jul-02 20:40 324 2 gusting 6 31.1
2020-Jul-02 20:35 308 2 gusting 5 31.1
2020-Jul-02 20:30 355 2 gusting 6 30.6
2020-Jul-02 20:25 315 2 gusting 6 30.6
2020-Jul-02 20:15 302 2 gusting 5 30.6
2020-Jul-02 20:10 327 2 gusting 4 31.1
2020-Jul-02 20:05 340 3 gusting 10 31.1
2020-Jul-02 20:00 326 4 gusting 10 30.6
2020-Jul-02 19:55 350 3 gusting 6 30.6
2020-Jul-02 19:50 005 3 gusting 9 30.6
2020-Jul-02 19:45 028 3 gusting 9 30.6
2020-Jul-02 19:40 355 2 gusting 6 31.1
2020-Jul-02 19:35 328 2 gusting 5 30.6
2020-Jul-02 19:25 051 2 gusting 5 30.6
2020-Jul-02 19:20 355 2 gusting 5 30.6
2020-Jul-02 19:15 012 2 gusting 9 30.6
2020-Jul-02 19:10 305 2 gusting 9 30.0
2020-Jul-02 19:05 050 2 gusting 6 30.0
2020-Jul-02 19:00 098 2 gusting 6 30.0
2020-Jul-02 18:55 148 2 gusting 6 30.0
2020-Jul-02 18:50 304 3 gusting 6 30.0
2020-Jul-02 18:45 015 3 gusting 7 30.0
2020-Jul-02 18:40 015 3 gusting 9 30.0
2020-Jul-02 18:35 055 2 gusting 9 30.0
2020-Jul-02 18:30 302 2 gusting 6 30.0
2020-Jul-02 18:25 068 3 gusting 10 30.0
2020-Jul-02 18:20 022 3 gusting 10 30.0
2020-Jul-02 18:15 033 2 gusting 6 30.0
2020-Jul-02 18:10 039 2 gusting 5 30.0
2020-Jul-02 18:05 011 3 gusting 7 29.4
2020-Jul-02 18:00 355 3 gusting 7 29.4
2020-Jul-02 17:55 337 2 gusting 6 29.4
2020-Jul-02 17:50 360 2 gusting 6 29.4
2020-Jul-02 17:45 062 3 gusting 7 29.4
2020-Jul-02 17:40 071 4 gusting 9 29.4
2020-Jul-02 17:35 346 5 gusting 9 28.9
2020-Jul-02 17:30 319 5 gusting 8 28.3
2020-Jul-02 17:25 340 4 gusting 9 29.4
2020-Jul-02 17:20 009 3 gusting 9 28.9
2020-Jul-02 17:15 026 2 gusting 6 29.4
2020-Jul-02 17:10 055 3 gusting 5 29.4
2020-Jul-02 17:05 044 3 gusting 8 28.9
2020-Jul-02 17:00 360 3 gusting 10 28.3
2020-Jul-02 16:55 324 3 gusting 10 28.3
2020-Jul-02 16:50 005 3 gusting 6 28.3
2020-Jul-02 16:45 030 3 gusting 6 28.9
2020-Jul-02 16:40 325 2 gusting 5 28.3
2020-Jul-02 16:35 341 3 gusting 6 28.3
2020-Jul-02 16:25 334 3 gusting 9 28.3
2020-Jul-02 16:20 063 3 gusting 9 28.3
2020-Jul-02 16:15 064 3 gusting 9 27.8
2020-Jul-02 16:10 340 3 gusting 7 27.8
2020-Jul-02 16:05 331 4 gusting 11 27.8
2020-Jul-02 16:00 355 4 gusting 11 27.8
2020-Jul-02 15:55 339 3 gusting 7 27.8
2020-Jul-02 15:50 318 3 gusting 7 27.2
2020-Jul-02 15:45 107 3 gusting 7 27.2
2020-Jul-02 15:40 049 3 gusting 7 27.8
2020-Jul-02 15:35 320 2 gusting 7 27.2
2020-Jul-02 15:30 346 2 gusting 5 27.8
2020-Jul-02 15:25 055 3 gusting 8 27.2
2020-Jul-02 15:20 351 2 gusting 8 27.2
2020-Jul-02 15:15 053 3 gusting 8 27.2
2020-Jul-02 15:10 328 3 gusting 8 26.7
2020-Jul-02 15:05 355 2 gusting 8 26.7
2020-Jul-02 14:55 036 4 gusting 10 26.7
2020-Jul-02 14:50 295 4 gusting 10 26.7
2020-Jul-02 14:45 329 2 gusting 8 26.7
2020-Jul-02 14:40 054 2 gusting 6 26.7
2020-Jul-02 14:35 344 2 gusting 4 26.7
2020-Jul-02 14:25 323 2 gusting 6 26.7
2020-Jul-02 14:20 328 2 gusting 6 26.7
2020-Jul-02 14:15 309 2 gusting 5 26.1
2020-Jul-02 14:10 284 2 gusting 5 26.1
2020-Jul-02 14:05 047 3 gusting 6 26.1
2020-Jul-02 14:00 309 3 gusting 9 26.1
2020-Jul-02 13:55 355 3 gusting 6 26.1
2020-Jul-02 13:50 343 3 gusting 7 26.1
2020-Jul-02 13:45 051 2 gusting 6 26.1
2020-Jul-02 13:40 050 2 gusting 5 26.1
2020-Jul-02 13:35 055 2 gusting 6 25.6
2020-Jul-02 13:30 033 2 gusting 6 25.6
2020-Jul-02 13:25 355 2 gusting 6 25.6
2020-Jul-02 13:20 034 2 gusting 6 25.6
2020-Jul-02 13:10 016 1 gusting 5 25.6
2020-Jul-02 13:05 030 1 gusting 5 25.0
2020-Jul-02 12:55 030 1 gusting 6 25.0
2020-Jul-02 12:50 011 2 gusting 6 24.4
2020-Jul-02 12:45 013 1 gusting 4 24.4
2020-Jul-02 12:40 020 1 gusting 4 23.9
2020-Jul-02 12:35 330 1 gusting 3 23.9
2020-Jul-02 12:30 360 1 gusting 4 23.3
2020-Jul-02 12:25 005 2 gusting 4 22.8
2020-Jul-02 12:20 325 2 gusting 4 22.8
2020-Jul-02 12:15 339 1 gusting 3 22.8
2020-Jul-02 12:10 333 1 gusting 3 22.2
2020-Jul-02 12:05 335 2 gusting 4 22.2
2020-Jul-02 12:00 334 2 gusting 4 21.7
2020-Jul-02 11:55 321 2 gusting 5 21.1
2020-Jul-02 11:50 329 2 gusting 4 21.1
2020-Jul-02 11:45 309 2 gusting 3 20.6
2020-Jul-02 11:40 311 2 gusting 3 20.6
2020-Jul-02 11:35 311 1 gusting 3 20.6
2020-Jul-02 11:30 311 1 gusting 3 20.0
2020-Jul-02 11:25 310 0 gusting 3 20.0
2020-Jul-02 11:20 191 20.0
2020-Jul-02 11:15 191 20.0
2020-Jul-02 11:10 190 19.4
2020-Jul-02 11:05 190 19.4
2020-Jul-02 11:00 190 19.4